Вернуться в каталог

STARLINK-32883

АктивенСвязьVLEO
NORAD 62806·PAYLOAD·🇺🇸 United States

Запущен Jan 24, 2025 с Vandenberg Space Force Base

Loading…

Ближайшие Пролёты (ближайшие 24 часа)

TLE

СвежийSource: CelesTrak SupGP

Эпоха: Sep 15, 2026, 02:32 UTC

1 62806C 25018A   26258.10604167  .00003380  00000+0  99887-4 0  2582
2 62806  53.1571 146.5819 0001300  87.3003 287.8844 15.34384344    16

Отслеживайте STARLINK-32883 в реальном времени с AllMySat

Download on the App Store